STARLINK-5679 (55467 NORAD) Tracking and Keplerian Element Data

This shows tracking and keplerian element data for the satellite.

Feedback or suggestion? Click here.




ElementValue
Catalog55467
NameSTARLINK-5679
Epoch Orbit831
Epoch Day85.25001157
Epoch Year2023
RAAN76.7426
Inclination43.0002
Eccentricity0.0001374
Argument of Perigee274.6629
Mean Anonmoly144.1343
Mean Motion15.48934301
Decay Rate-0.00063936
L11 55467U 23015U 23085.25001157 -.00063936 00000+0 -11586-2 0 9998
L22 55467 43.0002 76.7426 0001374 274.6629 144.1343 15.48934301 8311



Live tracking and technical data element details for STARLINK-5679 (NORAD 55467). STARLINK-5679 can be tracked NOW for your location showing map with azimuth and elevation plus other details from your city location.







IsCatalogInMostPopularTable: catalog: 55467, numindb: -1

Insert: records affected: 1


GetName: 55467 STARLINK-5679

Hit Count: inserted at: Tue, 28 Mar 2023 01:39:32 GMT